West Palm Beach, FL

5:33 AM EDT on May 27, 2017 (GMT -0400)
Palm Beach International

Weather History for KPBI - March, 2012

Change the Weather History Date:

Monday, March 5, 2012

  Actual Average Record
Temperature  
Mean Temperature 62 °F 70 °F  
Max Temperature 73 °F 78 °F 91 °F (1964)
Min Temperature 51 °F 61 °F 39 °F (2010)
Degree Days  
Heating Degree Days 3 1  
Month to date heating degree days 3 5  
Since 1 July heating degree days 112 210  
Cooling Degree Days 0 6  
Month to date cooling degree days 36 28  
Year to date cooling degree days 352 263  
Growing Degree Days 12 (Base 50)    
Moisture  
Dew Point 45 °F    
Average Humidity 56    
Maximum Humidity 72    
Minimum Humidity 39    
Precipitation  
Precipitation 0.00 in 0.13 in 2.07 in (1982)
Month to date precipitation 0.09 0.63  
Year to date precipitation 4.29 6.58  
Snow  
Snow 0.00 in - - ()
Month to date snowfall 0.0  
Since 1 July snowfall 0.0  
Snow Depth 0.00 in    
Sea Level Pressure  
Sea Level Pressure 30.28 in    
Wind  
Wind Speed 10 mph (North)    
Max Wind Speed 20 mph    
Max Gust Speed 26 mph    
Visibility 10 miles    
Events      
T = Trace of Precipitation, MM = Missing Value Source: NWS Daily Summary

Daily Weather History Graph

Daily Weather History Graph

Search for Another Location

Airport or City:

Trip Planner

Search our weather history database for the weather conditions in past years. The results will help you decide how hot, cold, wet, or windy it might be!

Date:

Astronomy

Mar. 05, 2012 Rise Set
Actual Time 6:39 AM EST 6:24 PM EST
Civil Twilight 6:16 AM EST 6:47 PM EST
Nautical Twilight 5:49 AM EST 7:14 PM EST
Astronomical Twilight 5:22 AM EST 7:41 PM EST
Moon 3:52 PM EST (3/5) 4:24 AM EST (3/5)
Length of Visible Light 12h 30m
Length of Day
11h 44m
Waxing Gibbous, 91% of the Moon is Illuminated
Mar 5
Waxing Gibbous
Mar 8
Full
Mar 14
Last Quarter
Mar 22
New
Mar 30
First Quarter

Hourly Weather History & Observations

Time (EST) Temp. Dew Point Humidity Pressure Visibility Wind Dir Wind Speed Gust Speed Precip Events Conditions
12:53 AM 53.1 °F 35.1 °F 50% 30.19 in 10.0 mi NNW 10.4 mph - N/A   Clear
1:53 AM 52.0 °F 37.0 °F 57% 30.19 in 10.0 mi NNW 8.1 mph - N/A   Clear
2:53 AM 52.0 °F 37.9 °F 59% 30.19 in 10.0 mi NNW 11.5 mph - N/A   Partly Cloudy
3:53 AM 52.0 °F 37.9 °F 59% 30.20 in 10.0 mi NNW 9.2 mph - N/A   Clear
4:53 AM 52.0 °F 37.0 °F 57% 30.22 in 10.0 mi NW 9.2 mph - N/A   Clear
5:53 AM 53.1 °F 35.1 °F 50% 30.24 in 10.0 mi NNW 10.4 mph - N/A   Partly Cloudy
6:53 AM 54.0 °F 34.0 °F 47% 30.27 in 10.0 mi NNW 12.7 mph - N/A   Scattered Clouds
7:53 AM 57.9 °F 35.1 °F 42% 30.30 in 10.0 mi NNW 12.7 mph - N/A   Scattered Clouds
8:53 AM 62.1 °F 37.9 °F 41% 30.32 in 10.0 mi North 15.0 mph 26.5 mph N/A   Scattered Clouds
9:53 AM 66.9 °F 42.1 °F 40% 30.33 in 10.0 mi North 17.3 mph 23.0 mph N/A   Partly Cloudy
10:53 AM 69.1 °F 46.0 °F 44% 30.33 in 10.0 mi North 15.0 mph - N/A   Partly Cloudy
11:53 AM 71.1 °F 46.9 °F 42% 30.33 in 10.0 mi North 16.1 mph 23.0 mph N/A   Partly Cloudy
12:53 PM 71.1 °F 48.9 °F 45% 30.32 in 10.0 mi NNE 13.8 mph - N/A   Partly Cloudy
1:53 PM 71.1 °F 50.0 °F 47% 30.30 in 10.0 mi NE 13.8 mph 23.0 mph N/A   Partly Cloudy
2:53 PM 72.0 °F 50.0 °F 46% 30.29 in 10.0 mi NNE 9.2 mph 17.3 mph N/A   Partly Cloudy
3:53 PM 71.1 °F 51.1 °F 49% 30.28 in 10.0 mi NE 10.4 mph - N/A   Partly Cloudy
4:53 PM 70.0 °F 51.1 °F 51% 30.27 in 10.0 mi North 12.7 mph - N/A   Scattered Clouds
5:53 PM 68.0 °F 51.1 °F 55% 30.28 in 10.0 mi NNE 8.1 mph - N/A   Partly Cloudy
6:53 PM 64.9 °F 51.1 °F 61% 30.29 in 10.0 mi North 4.6 mph - N/A   Partly Cloudy
7:53 PM 63.0 °F 51.1 °F 65% 30.30 in 10.0 mi NNW 6.9 mph - N/A   Partly Cloudy
8:53 PM 62.1 °F 51.1 °F 67% 30.32 in 10.0 mi North 5.8 mph - N/A   Clear
9:53 PM 61.0 °F 51.1 °F 70% 30.33 in 10.0 mi North 5.8 mph - N/A   Clear
10:53 PM 60.1 °F 51.1 °F 72% 30.34 in 10.0 mi North 4.6 mph - N/A   Clear
11:53 PM 59.0 °F 51.1 °F 75% 30.34 in 10.0 mi North 4.6 mph - N/A   Partly Cloudy